Flag Weather past 2 weeks in Dakar, Senegal

Now
81 °F

Sunny.


Feels Like: 82 °F
Forecast: N/A
Wind: 20 mph from North

Location: Dakar / Yoff

Current Time: Nov 27, 2014 at 2:41:26 PM

Latest Report: Nov 27, 2014 at 2:00 PM


Visibility: 10 mi

Pressure: 29.89 "Hg

Humidity: 54%

Dew point: 63 °F

Location of DakarLocation

Historic Weather in Dakar — Graph

°F

Dakar temperature yesterday

Maximum temperature yesterday: 84 °F (at 2:00 PM)
Minimum temperature yesterday: 77 °F (at 5:00 AM)
Average temperature yesterday: 80 °F

Past Weeks' High & Low Weather Summary

 TemperatureHumidityPressure
High86 °F (Nov 12, 2:00 PM)100% (Nov 16, 6:30 AM)29.98 "Hg (Nov 16, 6:30 AM)
Low73 °F (Nov 16, 1:00 AM)46% (Nov 12, 2:00 PM)29.77 "Hg (Nov 14, 4:30 PM)
Average79 °F75%29.89 "Hg
* Reported Nov 12 1:00 PM — Nov 27 1:30 PM, Dakar, Weather by CustomWeather, © 2014

Note: Actual official high and low records may vary slightly from our data, if they occured in-between our weather recording intervals... More about our weather records

Advertising

Dakar weather history for previous 24 hours

 ConditionsComfort  
Time TempWeatherWind HumidityBarometerVisibility
1:30 PM
Nov 27
81 °FSunny.18 mph54%29.89 "Hg10 mi
1:00 PM81 °FSunny.20 mph54%29.92 "Hg10 mi
12:30 PM81 °FClear.20 mph54%29.92 "Hg6 mi
12:00 PM81 °FClear.18 mph58%29.92 "Hg5 mi
11:30 AM81 °FSunny.18 mph54%29.92 "Hg10 mi
11:00 AM81 °FSunny.16 mph58%29.95 "Hg10 mi
10:30 AM79 °FSunny.18 mph61%29.95 "Hg10 mi
10:00 AM79 °FSunny.16 mph61%29.92 "Hg10 mi
9:30 AM79 °FSunny.16 mph61%29.92 "Hg10 mi
9:00 AM77 °FSunny.14 mph69%29.92 "Hg10 mi
8:30 AM77 °FClear.15 mph69%29.92 "Hg6 mi
8:00 AM77 °FClear.16 mph69%29.92 "Hg6 mi
7:30 AM75 °FClear.15 mph78%29.92 "Hg6 mi
7:00 AM75 °FClear.15 mph78%29.89 "Hg10 mi
6:30 AM75 °FClear.17 mph78%29.89 "Hg10 mi
6:00 AM75 °FClear.15 mph78%29.89 "Hg10 mi
5:30 AM77 °FClear.15 mph74%29.89 "Hg10 mi
5:00 AM77 °FClear.15 mph74%29.89 "Hg10 mi
4:30 AM77 °FClear.14 mph74%29.89 "Hg10 mi
4:00 AM77 °FClear.No wind74%29.89 "Hg10 mi
3:30 AM77 °FClear.14 mph74%29.89 "Hg10 mi
3:00 AM77 °FClear.13 mph74%29.89 "Hg10 mi
2:30 AM77 °FClear.13 mph74%29.89 "Hg10 mi
2:00 AM77 °FClear.14 mph74%29.92 "Hg10 mi
1:30 AM77 °FClear.13 mph74%29.92 "Hg10 mi
1:00 AM79 °FClear.12 mph70%29.92 "Hg10 mi
12:30 AM77 °FClear.13 mph74%29.92 "Hg10 mi
12:00 AM77 °FClear.15 mph74%29.92 "Hg10 mi
11:30 PM
Nov 26
79 °FClear.16 mph70%29.92 "Hg10 mi
11:00 PM79 °FClear.16 mph70%29.92 "Hg10 mi
10:30 PM79 °FClear.17 mph70%29.92 "Hg10 mi
10:00 PM79 °FClear.17 mph70%29.92 "Hg10 mi
9:30 PM79 °FClear.15 mph70%29.92 "Hg10 mi
9:00 PM79 °FClear.15 mph70%29.89 "Hg10 mi
8:30 PM79 °FClear.14 mph70%29.89 "Hg10 mi
8:00 PM79 °FClear.14 mph65%29.89 "Hg10 mi
7:30 PM79 °FClear.12 mph65%29.89 "Hg10 mi
7:00 PM79 °FClear.14 mph70%29.86 "Hg10 mi
6:30 PM81 °FSunny.15 mph66%29.86 "Hg10 mi
6:00 PM81 °FSunny.15 mph70%29.86 "Hg10 mi
5:30 PM81 °FSunny.15 mph66%29.86 "Hg10 mi
5:00 PM82 °FSunny.15 mph62%29.86 "Hg10 mi
4:30 PM82 °FSunny.16 mph62%29.86 "Hg10 mi
4:00 PM82 °FSunny.16 mph62%29.86 "Hg10 mi
3:30 PM82 °FSunny.17 mph58%29.86 "Hg10 mi
3:00 PM82 °FSunny.17 mph58%29.86 "Hg10 mi
2:30 PM82 °FSunny.17 mph58%29.86 "Hg10 mi
2:00 PM84 °FSunny.16 mph55%29.89 "Hg10 mi
Weather by CustomWeather, © 2014

See weather overviewHow to use our weather pages